EHI
0 0 0 0 0 0 0 0 0 0 0 0 0 0 0 0 0 0 0 0 0 0 0 0 0 0 0 0 0 0 0 0 1 2 3 2 2 3 7 13 14 9 5
0 0 0 0 0 0 0 0 0 0 0 0 0 0 0 0 0 0 0 0 0 0 0 0 0 0 0 0 0 0 0 0 0 1 4 6 6 5 8 12 14 12 10
0 0 0 0 0 0 0 0 0 0 0 0 0 0 0 0 0 0 0 0 0 0 0 0 0 0 0 0 0 0 0 0 0 0 3 9 12 10 9 11 14 17 17
0 0 0 0 0 0 0 0 0 0 0 0 0 0 0 0 0 0 0 0 0 0 0 0 0 0 0 0 0 0 0 0 0 0 2 7 14 16 14 15 18 20 22
0 0 0 0 0 0 0 0 0 0 0 0 0 0 0 0 0 0 0 0 0 0 0 0 0 0 0 0 1 0 0 0 0 0 0 3 12 20 23 25 26 24 22
0 0 0 0 0 0 0 0 0 0 0 0 0 0 0 0 0 0 0 0 0 0 0 0 0 0 0 0 0 0 0 0 0 0 0 2 9 20 30 35 35 30 26
0 0 0 0 0 0 0 0 0 0 0 0 0 0 0 0 0 0 0 0 0 0 0 0 0 0 0 0 0 0 0 0 0 0 0 1 5 13 26 35 35 32 28
0 0 0 0 0 0 0 0 0 0 0 0 0 0 0 0 0 0 0 0 0 0 0 0 0 0 0 0 0 0 0 0 0 0 0 0 1 5 14 22 23 23 23
0 0 0 0 0 0 0 0 0 0 0 0 0 0 0 0 0 0 0 0 0 0 0 0 0 0 0 0 0 0 0 0 0 0 0 0 0 1 5 10 12 14 17
0 0 0 0 0 0 0 0 0 0 0 0 0 0 0 0 0 0 0 0 0 0 0 0 0 0 0 0 0 0 0 0 0 0 0 1 1 1 3 6 8 11 14
0 0 0 0 0 0 0 0 0 0 0 0 0 0 0 0 0 0 0 0 0 0 0 0 0 0 0 0 0 0 0 0 0 0 0 1 1 2 3 3 4 7 8
0 0 0 0 0 0 0 0 0 0 0 0 0 0 0 0 0 0 0 0 0 0 0 0 0 0 0 0 0 0 0 0 0 0 0 0 1 1 1 1 1 2 3
0 0 0 0 0 0 0 0 0 0 0 0 0 0 0 0 0 0 0 0 0 0 0 0 0 0 0 0 0 0 0 0 0 0 0 0 0 1 1 0 0 0 1
0 0 0 0 0 0 0 0 0 0 0 0 0 0 0 0 0 0 0 0 0 0 0 0 0 0 0 0 0 0 0 0 0 0 0 0 0 0 0 0 0 0 0
0 0 0 0 0 0 0 0 0 0 0 0 0 0 0 0 0 0 0 0 0 0 0 0 0 0 0 0 0 0 0 0 0 0 0 0 0 0 0 0 0 0 0
0 0 0 0 0 0 0 0 0 0 0 0 0 0 0 0 0 0 0 0 0 0 0 0 0 0 0 0 0 0 0 0 0 0 0 0 0 0 0 0 0 0 0
0 0 0 0 0 0 0 0 0 0 0 0 0 0 0 0 0 0 0 0 0 0 0 0 0 0 0 0 0 0 0 0 0 0 0 0 0 0 0 0 0 0 0
0 0 0 0 0 0 0 0 0 0 0 0 0 0 0 0 0 0 0 0 0 0 0 0 0 0 0 0 0 0 0 0 0 0 0 0 0 0 0 0 0 0 0
0 0 0 0 0 0 0 0 0 0 0 0 0 0 0 0 0 0 0 0 0 0 0 0 0 0 0 0 0 0 0 0 0 0 0 0 0 0 0 0 0 0 0
0 0 0 0 0 0 0 0 0 0 0 0 0 0 0 0 0 0 0 0 0 0 0 0 0 0 0 0 0 0 0 0 0 0 0 0 0 0 0 0 0 0 0
0 0 0 0 0 0 0 0 0 0 0 0 0 0 0 0 0 0 0 0 0 0 0 0 0 0 0 0 0 0 0 0 0 0 0 0 0 0 0 0 0 0 0
0 0 0 0 0 0 0 0 0 0 0 0 0 0 0 0 0 0 0 0 0 0 0 0 0 0 0 0 0 0 0 0 0 0 0 0 0 0 0 0 0 0 0
0 0 0 0 0 0 0 0 0 0 0 0 0 0 0 0 0 0 0 0 0 0 0 0 0 0 0 0 0 0 0 0 0 0 0 0 0 0 0 0 0 0 0
0 0 0 0 0 0 0 0 0 0 0 0 0 0 0 0 0 0 0 0 0 0 0 0 0 0 0 0 0 0 0 0 0 0 0 0 0 0 0 0 0 0 0
0 0 0 0 0 0 0 0 0 0 0 0 0 0 0 0 0 0 0 0 0 0 0 0 0 0 0 0 0 0 0 0 0 0 0 0 0 0 0 0 0 0 0
0 0 0 0 0 0 0 0 0 0 0 0 0 0 0 0 0 0 0 0 0 0 0 0 0 0 0 0 0 0 0 0 0 0 0 0 0 0 0 0 0 0 0
Wind_Speed
7 8 7 7 8 8 9 10 10 13 13 13 12 13 14 13 13 12 10 23 27 26 26 25 24 23 22 21 21 24 26 27 27 26 24 24 24 24 23 23 23 23 23
7 8 8 7 7 8 9 9 11 11 11 11 13 14 14 13 12 12 12 16 24 25 25 24 24 23 22 22 21 23 26 28 29 27 26 25 25 24 24 24 23 23 23
7 8 7 7 7 8 9 9 10 9 11 11 13 14 13 12 13 14 14 12 12 19 23 23 23 22 22 22 21 21 25 28 29 28 27 26 25 25 25 24 23 23 23
8 7 7 6 7 8 8 9 8 10 11 11 12 12 12 12 14 15 13 12 10 10 14 20 21 21 21 21 21 20 21 25 28 29 29 28 26 26 27 25 24 23 23
9 7 7 6 8 7 7 9 9 10 11 12 12 12 11 12 14 13 12 12 10 9 8 14 20 19 18 19 19 19 19 22 27 29 29 29 28 28 27 27 25 24 24
10 8 7 7 8 7 6 8 10 10 10 11 13 13 12 13 12 9 10 9 8 8 8 10 10 12 16 17 16 16 16 18 24 28 29 30 30 29 28 28 27 26 25
10 9 8 8 8 8 9 9 10 11 9 10 11 12 11 11 10 5 6 6 6 7 9 11 9 8 8 16 16 15 14 14 19 24 27 29 30 30 29 28 27 27 26
11 11 10 9 9 8 9 9 10 9 9 8 9 11 8 6 3 9 6 6 6 7 10 12 12 10 9 7 11 15 13 12 14 19 24 26 28 30 29 28 27 28 27
11 11 10 10 10 8 8 9 9 10 10 9 6 7 7 7 11 6 5 5 6 7 8 10 12 12 12 8 8 11 12 11 12 14 19 23 26 29 29 27 26 26 25
11 11 11 11 10 9 10 10 9 8 9 10 8 6 8 10 9 8 4 4 7 8 9 10 12 12 11 8 9 13 12 11 11 11 13 18 22 28 30 28 26 24 22
9 11 12 10 10 10 11 11 11 9 7 8 9 9 10 9 9 8 11 8 7 5 7 10 10 9 10 8 7 9 12 11 10 10 10 13 19 23 28 31 29 25 22
7 9 13 10 10 10 11 12 10 10 9 9 9 8 9 8 7 8 10 12 10 8 8 8 9 8 7 7 8 12 12 10 10 10 10 10 13 20 25 29 31 30 27
10 11 12 11 11 12 13 12 11 11 9 10 9 8 9 9 9 9 10 11 12 9 6 6 6 8 7 5 6 14 11 10 10 10 11 10 9 14 19 25 29 31 30
11 13 13 14 15 15 14 12 11 11 9 8 11 10 9 9 9 8 8 10 11 8 5 6 8 7 5 6 10 15 8 11 10 10 11 10 9 11 15 20 25 28 28
12 14 16 16 16 16 15 13 10 10 9 9 10 11 9 8 8 8 8 8 9 11 9 5 5 6 8 8 12 8 7 11 11 10 10 10 9 10 13 16 22 26 26
13 15 17 17 17 17 15 12 10 9 9 9 8 9 9 7 7 7 7 8 8 9 9 5 6 9 10 10 14 9 8 13 10 9 9 9 8 9 12 15 20 23 25
13 15 17 18 18 17 14 10 9 9 8 8 8 8 9 9 7 6 6 6 6 7 9 9 7 8 9 10 10 8 7 5 4 8 9 9 8 8 12 15 19 23 24
13 14 15 16 17 16 13 11 9 9 8 9 9 8 8 8 8 7 6 7 6 6 7 11 9 7 8 8 8 8 6 4 3 7 9 9 7 7 12 15 18 21 23
12 14 14 16 16 15 11 11 11 11 10 10 10 10 9 9 9 8 7 7 7 7 6 8 9 7 6 6 6 6 5 3 4 4 6 7 5 6 10 14 16 19 21
11 13 14 15 15 13 8 9 11 12 12 12 12 11 11 11 10 10 8 8 9 8 7 7 7 6 5 5 4 3 3 2 2 2 3 3 3 5 9 13 15 17 19
12 12 13 14 15 13 8 7 9 11 11 12 12 13 13 19 21 16 12 10 10 8 7 7 7 7 6 6 5 4 4 3 2 1 1 1 0 1 4 8 10 14 17
10 11 11 13 14 13 20 22 14 9 10 11 12 13 13 14 19 21 23 21 18 12 10 7 6 8 8 7 7 6 5 2 1 2 1 1 1 2 3 4 9 13 14
9 10 11 11 13 17 24 22 22 10 9 9 10 12 13 15 18 7 15 19 17 20 18 10 7 8 8 8 9 8 6 4 3 3 2 1 0 2 2 4 12 13 13
8 7 9 11 11 16 25 20 20 9 7 9 9 11 12 12 16 14 11 11 9 10 14 9 7 7 8 9 8 7 7 6 5 3 1 1 0 1 2 3 10 12 13
7 7 8 9 11 15 23 21 15 6 7 9 9 12 14 10 23 24 14 13 12 10 15 19 17 15 16 16 12 6 6 3 2 1 1 0 0 1 1 2 5 11 13
7 9 10 9 10 11 20 23 15 5 6 7 8 11 18 21 24 25 14 13 14 12 12 12 12 13 10 11 14 7 5 4 3 1 1 0 1 1 2 1 2 5 7
Wind_Direction
338 336 331 330 331 332 330 327 326 322 322 319 316 314 313 309 303 300 302 303 304 304 303 300 297 292 285 279 266 245 233 224 214 208 206 203 200 198 196 195 194 192 190
333 333 328 325 328 329 325 323 318 318 318 316 312 312 307 302 298 298 297 299 301 301 301 299 295 290 286 280 274 254 237 228 220 211 206 205 202 199 197 197 195 194 192
329 329 324 321 325 324 321 322 315 319 317 315 312 308 304 300 299 297 296 292 293 298 299 300 298 291 285 280 277 266 243 230 223 215 207 204 203 200 199 197 196 195 193
326 324 319 315 319 321 321 320 321 324 318 314 311 307 303 301 298 294 291 289 289 290 299 307 306 296 286 280 277 274 253 234 226 219 210 204 202 201 200 198 196 195 194
325 321 312 311 319 317 318 320 326 319 316 314 310 305 303 299 292 291 289 288 285 291 300 315 317 311 297 284 279 276 265 242 229 222 215 206 202 201 201 199 197 196 195
323 320 310 315 317 315 316 316 317 316 311 311 310 305 299 289 283 281 284 290 294 306 322 320 317 318 315 303 292 282 274 254 234 226 220 211 204 202 201 199 198 197 196
320 315 314 315 315 313 314 314 318 315 315 315 312 312 294 276 273 290 296 296 303 328 331 327 323 320 318 317 310 303 290 272 245 230 223 216 208 203 201 200 198 198 197
321 322 319 316 312 311 310 312 316 311 315 323 314 313 310 303 338 326 302 304 322 336 330 327 318 320 317 305 306 310 309 298 270 240 226 220 214 207 203 201 200 199 198
318 315 313 312 309 307 307 307 304 311 313 310 302 300 305 316 323 281 289 304 327 323 320 316 313 315 307 304 303 305 315 316 296 262 234 222 217 211 206 202 201 200 199
316 317 316 312 308 308 304 302 312 302 301 306 304 280 286 295 296 305 300 305 309 314 311 313 310 303 302 299 296 302 312 321 310 288 255 230 220 213 207 201 200 199 198
314 317 317 311 308 307 301 298 298 292 292 291 293 293 292 288 273 285 301 310 309 299 300 302 298 297 298 297 295 302 319 323 319 306 285 247 227 218 210 202 196 197 199
314 309 313 306 303 301 298 297 292 288 287 285 284 283 285 287 293 293 296 307 309 307 302 295 294 294 297 299 303 318 322 331 329 318 306 282 241 224 215 205 197 196 196
321 315 311 307 303 298 296 294 292 289 283 280 280 281 280 278 283 284 290 299 302 303 293 290 291 295 300 314 320 329 320 334 342 323 316 301 267 230 218 207 198 196 196
314 309 311 309 303 299 299 295 293 286 282 279 282 281 280 279 279 282 287 294 298 297 291 284 293 290 321 328 319 325 319 332 337 325 319 306 277 236 215 205 197 193 196
314 316 313 310 308 307 303 298 289 286 283 281 281 281 279 279 280 280 279 281 287 297 302 288 291 314 324 312 309 310 310 316 326 324 319 306 278 239 213 199 190 188 191
316 316 319 320 319 316 312 305 296 290 288 286 284 286 289 287 285 283 281 279 277 280 285 287 291 295 300 302 303 307 301 305 313 323 317 309 279 236 210 190 181 180 186
321 323 324 327 330 330 330 326 320 313 306 306 309 307 307 304 304 300 297 294 290 287 285 288 283 287 289 291 294 293 286 281 292 312 317 308 279 231 206 187 179 180 184
324 326 329 334 339 342 346 349 342 340 334 332 332 330 329 332 329 321 319 317 308 297 292 294 294 290 286 287 285 284 283 280 275 297 308 306 283 230 202 187 179 180 181
327 331 336 338 341 345 357 7 7 5 1 355 352 350 345 344 344 339 337 335 327 322 308 298 296 292 289 291 289 282 275 268 273 289 303 304 279 228 197 184 178 177 178
331 334 336 337 340 340 356 18 17 16 11 8 4 359 352 354 356 349 351 351 340 332 329 321 311 310 308 306 300 300 303 273 282 300 307 305 282 223 189 179 176 174 175
337 334 335 338 341 340 355 34 24 12 7 4 1 357 353 0 4 4 360 360 351 343 344 339 337 336 337 344 342 325 306 289 281 295 340 320 310 189 177 171 167 168 170
333 334 335 336 341 341 1 27 32 11 4 2 358 353 349 351 360 6 2 4 2 355 356 352 345 342 339 338 333 329 318 323 348 9 3 324 157 180 169 160 163 166 168
328 331 330 334 337 335 359 25 26 17 1 357 354 351 352 349 354 359 357 359 358 358 359 356 340 336 330 333 332 330 332 334 328 344 355 351 153 182 163 159 162 164 166
323 322 322 329 333 337 351 17 26 15 358 351 348 346 345 343 343 10 359 350 351 352 351 349 341 335 335 332 331 319 307 304 287 270 347 340 313 164 147 150 166 163 162
316 317 320 325 330 331 340 2 27 4 3 349 347 352 349 348 354 10 6 352 351 352 352 354 358 359 359 354 359 350 337 314 298 302 87 280 264 95 101 116 157 163 160
318 323 324 324 321 319 332 346 15 12 4 355 349 348 349 4 4 7 9 355 355 355 346 343 347 350 349 349 4 6 340 323 319 326 56 345 273 131 112 70 111 146 151